contact:dominique.lefevre@mio.osupytheas.fr, maurice.libes@osupytheas.fr, didier.mallarino@osupytheas.fr
Project:EMSO http://www.emso-fr.org/EMSO-France
Depth: 2436.0 m
Title:EMSO Ligure Ouest : Data MII capteur AQUADOPP
Date,Latitude,Longitude,X_East,Y_North,Z_Up,Amplitude_X,Amplitude_Y,Amplitude_Z,Batterie,SoundSpeed,Heading,Pitch,Roll,Pressure,TIS,Speed,Direction
, degrees North, degrees East, m.s-1, m.s-1,m.s-1, 1, 1, 1, Volt, m.s-1, degree, degree, degree, dbar, degree_C, m.s-1, degree
2021-07-03T00:04:03,42.805,6.029,-0.004,0.007,0.01,103.0,105.0,102.0,13.3,1505.2,327.0,-0.8,1.8,2470.509,13.28,0.008,330.3
2021-07-03T00:07:03,42.805,6.029,0.002,0.011,-0.008,106.0,105.0,103.0,13.4,1505.2,326.8,-0.7,1.8,2470.503,13.28,0.011,10.3
2021-07-03T00:10:03,42.805,6.029,-0.024,0.013,-0.005,107.0,105.0,103.0,13.4,1505.2,325.9,-0.8,1.8,2470.492,13.29,0.027,298.4
2021-07-03T00:13:03,42.805,6.029,-0.003,0.009,0.02,106.0,105.0,103.0,13.3,1505.2,330.0,-0.8,1.8,2470.481,13.29,0.009,341.6
2021-07-03T00:16:03,42.805,6.029,-0.022,0.021,-0.008,105.0,106.0,104.0,13.4,1505.2,327.6,-0.8,1.8,2470.528,13.29,0.03,313.7
2021-07-03T00:19:03,42.805,6.029,-0.002,0.02,0.012,108.0,105.0,103.0,13.4,1505.2,324.7,-0.8,1.8,2470.509,13.29,0.02,354.3
2021-07-03T00:22:03,42.805,6.029,-0.009,0.008,0.045,106.0,107.0,103.0,13.4,1505.2,325.9,-0.8,1.8,2470.519,13.29,0.012,311.6
2021-07-03T00:25:03,42.805,6.029,-0.031,-0.009,-0.026,108.0,104.0,103.0,13.4,1505.2,326.8,-0.7,1.8,2470.485,13.29,0.032,253.8
2021-07-03T00:28:03,42.805,6.029,-0.024,0.014,0.025,107.0,106.0,104.0,13.4,1505.2,330.4,-0.8,1.9,2470.518,13.29,0.027,300.3
2021-07-03T00:31:03,42.805,6.029,-0.032,0.001,0.0,105.0,106.0,103.0,13.3,1505.2,326.9,-0.7,1.8,2470.495,13.29,0.032,271.8
2021-07-03T00:34:03,42.805,6.029,-0.02,-0.012,-0.028,106.0,105.0,104.0,13.4,1505.2,328.9,-0.7,1.8,2470.457,13.29,0.023,239.0
2021-07-03T00:37:03,42.805,6.029,-0.038,0.022,-0.017,105.0,106.0,103.0,13.3,1505.2,330.3,-0.7,1.8,2470.484,13.29,0.043,300.1
2021-07-03T00:40:03,42.805,6.029,-0.027,0.0,-0.018,106.0,106.0,102.0,13.3,1505.2,324.9,-0.8,1.8,2470.525,13.29,0.026,270.0
2021-07-03T00:43:03,42.805,6.029,-0.044,0.006,0.018,106.0,105.0,103.0,13.4,1505.2,328.4,-0.7,1.8,2470.521,13.29,0.044,277.8
2021-07-03T00:46:03,42.805,6.029,-0.017,-0.012,-0.019,105.0,105.0,103.0,13.3,1505.2,329.9,-0.7,1.8,2470.528,13.29,0.02,234.8
2021-07-03T00:49:03,42.805,6.029,-0.022,0.016,0.011,105.0,106.0,103.0,13.4,1505.2,327.8,-0.7,1.8,2470.546,13.29,0.027,306.0
2021-07-03T00:52:03,42.805,6.029,-0.037,0.015,0.046,106.0,105.0,103.0,13.4,1505.2,327.1,-0.7,1.8,2470.494,13.29,0.039,292.1
2021-07-03T00:55:03,42.805,6.029,-0.015,0.017,-0.011,105.0,106.0,103.0,13.4,1505.2,327.5,-0.8,1.8,2470.521,13.29,0.022,318.6
2021-07-03T00:58:03,42.805,6.029,-0.044,0.028,0.001,106.0,106.0,103.0,13.4,1505.2,325.5,-0.7,1.8,2470.515,13.29,0.052,302.5
2021-07-03T01:04:03,42.805,6.029,-0.036,0.018,0.037,104.0,105.0,103.0,13.4,1505.2,324.8,-0.8,1.8,2470.557,13.28,0.04,296.6
2021-07-03T01:07:03,42.805,6.029,-0.015,0.003,0.004,106.0,105.0,103.0,13.4,1505.2,329.6,-0.8,1.8,2470.503,13.28,0.015,281.3
2021-07-03T01:10:03,42.805,6.029,-0.041,0.011,-0.021,105.0,106.0,103.0,13.3,1505.2,326.3,-0.7,1.9,2470.544,13.29,0.042,285.0
2021-07-03T01:13:03,42.805,6.029,-0.019,0.027,0.016,105.0,104.0,104.0,13.4,1505.2,326.2,-0.8,1.8,2470.476,13.29,0.033,324.9
2021-07-03T01:16:03,42.805,6.029,-0.037,0.011,0.004,105.0,106.0,104.0,13.4,1505.2,327.8,-0.8,1.8,2470.507,13.29,0.038,286.6
2021-07-03T01:19:03,42.805,6.029,-0.02,0.021,0.01,106.0,106.0,103.0,13.4,1505.2,324.9,-0.7,1.8,2470.516,13.29,0.028,316.4
2021-07-03T01:22:03,42.805,6.029,-0.004,0.0,-0.01,107.0,106.0,102.0,13.3,1505.2,328.5,-0.7,1.8,2470.495,13.29,0.004,270.0
2021-07-03T01:25:03,42.805,6.029,-0.033,-0.001,0.012,105.0,106.0,104.0,13.4,1505.2,327.2,-0.8,1.8,2470.527,13.29,0.033,268.3
2021-07-03T01:28:03,42.805,6.029,-0.021,0.018,0.019,105.0,106.0,105.0,13.4,1505.2,330.3,-0.8,1.8,2470.535,13.29,0.027,310.6
2021-07-03T01:31:03,42.805,6.029,-0.041,0.016,0.002,106.0,106.0,103.0,13.4,1505.2,327.9,-0.8,1.9,2470.51,13.29,0.044,291.3
2021-07-03T01:34:03,42.805,6.029,-0.005,0.022,0.002,107.0,107.0,103.0,13.4,1505.2,328.2,-0.7,1.8,2470.523,13.29,0.022,347.2
2021-07-03T01:37:03,42.805,6.029,-0.052,0.005,0.006,105.0,106.0,102.0,13.4,1505.2,330.4,-0.7,1.8,2470.512,13.29,0.052,275.5
2021-07-03T01:40:03,42.805,6.029,-0.022,0.002,-0.001,105.0,105.0,103.0,13.4,1505.2,327.3,-0.7,1.8,2470.515,13.29,0.022,275.2
2021-07-03T01:43:03,42.805,6.029,-0.028,-0.009,0.002,105.0,106.0,104.0,13.4,1505.2,325.8,-0.7,1.8,2470.538,13.29,0.029,252.2
2021-07-03T01:46:03,42.805,6.029,-0.025,0.016,-0.014,108.0,107.0,102.0,13.4,1505.2,326.3,-0.8,1.8,2470.487,13.29,0.029,302.6
2021-07-03T01:49:03,42.805,6.029,-0.035,0.001,-0.027,107.0,105.0,102.0,13.4,1505.2,326.7,-0.7,1.8,2470.479,13.29,0.035,271.6
2021-07-03T01:52:03,42.805,6.029,-0.011,0.0,0.001,105.0,107.0,102.0,13.4,1505.2,329.2,-0.8,1.8,2470.54,13.29,0.011,270.0
2021-07-03T01:55:03,42.805,6.029,-0.016,0.011,-0.018,106.0,106.0,103.0,13.4,1505.2,326.3,-0.7,1.8,2470.535,13.29,0.019,304.5
2021-07-03T01:58:03,42.805,6.029,-0.018,-0.003,-0.004,107.0,106.0,103.0,13.4,1505.2,324.9,-0.8,1.8,2470.523,13.29,0.018,260.5
2021-07-03T02:04:03,42.805,6.029,-0.01,0.01,0.009,106.0,106.0,103.0,13.3,1505.2,328.8,-0.7,1.8,2470.545,13.28,0.014,315.0
2021-07-03T02:07:03,42.805,6.029,-0.017,0.004,-0.007,105.0,105.0,103.0,13.4,1505.2,328.2,-0.8,1.8,2470.554,13.29,0.017,283.2
2021-07-03T02:10:03,42.805,6.029,-0.009,0.003,0.001,105.0,105.0,103.0,13.4,1505.2,327.3,-0.7,1.8,2470.504,13.29,0.009,288.4
2021-07-03T02:13:03,42.805,6.029,-0.029,0.02,0.002,106.0,106.0,103.0,13.4,1505.2,330.0,-0.7,1.8,2470.543,13.29,0.035,304.6
2021-07-03T02:16:03,42.805,6.029,-0.03,-0.002,0.007,106.0,106.0,104.0,13.3,1505.2,329.9,-0.7,1.8,2470.501,13.29,0.03,266.2
2021-07-03T02:19:03,42.805,6.029,-0.015,0.018,0.0,106.0,105.0,103.0,13.4,1505.2,326.4,-0.8,1.8,2470.497,13.29,0.023,320.2
2021-07-03T02:22:03,42.805,6.029,-0.038,0.009,-0.01,105.0,105.0,104.0,13.4,1505.2,326.4,-0.8,1.8,2470.515,13.29,0.039,283.3
2021-07-03T02:25:03,42.805,6.029,0.0,0.003,0.013,105.0,105.0,103.0,13.4,1505.2,326.1,-0.8,1.8,2470.484,13.29,0.003,0.0
2021-07-03T02:28:03,42.805,6.029,-0.029,0.0,-0.023,106.0,105.0,103.0,13.4,1505.2,328.9,-0.7,1.8,2470.527,13.29,0.028,270.0
2021-07-03T02:31:03,42.805,6.029,-0.028,0.008,0.008,105.0,108.0,102.0,13.4,1505.2,328.9,-0.8,1.8,2470.532,13.29,0.029,285.9
2021-07-03T02:34:03,42.805,6.029,-0.041,0.001,-0.002,107.0,107.0,102.0,13.4,1505.2,329.3,-0.7,1.8,2470.538,13.29,0.041,271.4
2021-07-03T02:37:03,42.805,6.029,-0.038,0.003,0.023,105.0,106.0,103.0,13.4,1505.2,327.9,-0.7,1.8,2470.492,13.29,0.038,274.5
2021-07-03T02:40:03,42.805,6.029,-0.007,0.016,0.025,108.0,106.0,102.0,13.4,1505.2,328.7,-0.7,1.8,2470.501,13.29,0.017,336.4
2021-07-03T02:43:03,42.805,6.029,-0.036,0.01,0.018,106.0,107.0,103.0,13.4,1505.2,326.9,-0.7,1.8,2470.524,13.29,0.037,285.5
2021-07-03T02:46:03,42.805,6.029,-0.027,0.003,-0.018,105.0,106.0,104.0,13.3,1505.2,329.9,-0.8,1.8,2470.486,13.29,0.027,276.3
2021-07-03T02:49:03,42.805,6.029,-0.008,-0.009,0.0,105.0,106.0,104.0,13.4,1505.2,325.0,-0.7,1.8,2470.545,13.29,0.012,221.6
2021-07-03T02:52:03,42.805,6.029,-0.028,0.007,0.02,106.0,104.0,103.0,13.4,1505.2,325.1,-0.8,1.8,2470.474,13.29,0.028,284.0
2021-07-03T02:55:03,42.805,6.029,-0.03,0.018,-0.001,104.0,106.0,103.0,13.3,1505.2,328.4,-0.7,1.8,2470.537,13.29,0.034,301.0
2021-07-03T02:58:03,42.805,6.029,-0.014,0.021,0.007,105.0,105.0,103.0,13.4,1505.2,327.7,-0.8,1.8,2470.512,13.29,0.025,326.3
2021-07-03T03:04:03,42.805,6.029,-0.011,0.009,0.018,106.0,105.0,104.0,13.3,1505.2,325.4,-0.8,1.8,2470.5,13.28,0.014,309.3
2021-07-03T03:07:03,42.805,6.029,-0.007,0.016,-0.01,107.0,106.0,104.0,13.4,1505.2,328.8,-0.8,1.8,2470.559,13.29,0.017,336.4
2021-07-03T03:10:03,42.805,6.029,-0.017,-0.003,-0.003,107.0,106.0,104.0,13.3,1505.2,328.6,-0.7,1.8,2470.528,13.29,0.017,260.0
2021-07-03T03:13:03,42.805,6.029,-0.025,0.009,-0.019,106.0,106.0,104.0,13.3,1505.2,328.7,-0.7,1.8,2470.532,13.29,0.026,289.8
2021-07-03T03:16:03,42.805,6.029,-0.007,-0.004,-0.012,106.0,105.0,102.0,13.4,1505.2,326.9,-0.8,1.9,2470.522,13.29,0.008,240.3
2021-07-03T03:19:03,42.805,6.029,-0.033,0.018,0.019,107.0,106.0,103.0,13.3,1505.2,327.8,-0.8,1.8,2470.496,13.29,0.037,298.6
2021-07-03T03:22:03,42.805,6.029,-0.029,0.004,0.012,106.0,106.0,103.0,13.4,1505.2,329.9,-0.7,1.8,2470.5,13.29,0.029,277.8
2021-07-03T03:25:03,42.805,6.029,-0.04,0.0,-0.024,105.0,106.0,103.0,13.3,1505.2,328.4,-0.7,1.8,2470.506,13.29,0.04,270.0
2021-07-03T03:28:03,42.805,6.029,-0.039,0.01,-0.002,106.0,105.0,104.0,13.4,1505.2,327.9,-0.7,1.8,2470.45,13.29,0.04,284.4
2021-07-03T03:31:03,42.805,6.029,-0.026,0.01,-0.018,107.0,105.0,103.0,13.4,1505.2,328.1,-0.8,1.8,2470.487,13.29,0.027,291.0
2021-07-03T03:34:03,42.805,6.029,-0.019,0.007,0.004,105.0,107.0,103.0,13.4,1505.2,326.8,-0.7,1.8,2470.493,13.29,0.02,290.2
2021-07-03T03:37:03,42.805,6.029,-0.024,-0.006,0.018,107.0,106.0,103.0,13.4,1505.2,329.2,-0.8,1.8,2470.51,13.29,0.024,256.0
2021-07-03T03:40:03,42.805,6.029,-0.033,0.021,0.002,106.0,105.0,103.0,13.4,1505.2,326.4,-0.8,1.8,2470.504,13.29,0.039,302.5
2021-07-03T03:43:03,42.805,6.029,-0.025,0.014,0.008,106.0,107.0,103.0,13.4,1505.2,329.8,-0.7,1.8,2470.531,13.29,0.028,299.3
2021-07-03T03:46:03,42.805,6.029,-0.04,0.009,0.0,107.0,106.0,103.0,13.4,1505.2,328.1,-0.7,1.8,2470.453,13.29,0.041,282.7
2021-07-03T03:49:03,42.805,6.029,-0.016,-0.009,0.02,107.0,105.0,104.0,13.4,1505.2,325.1,-0.8,1.8,2470.481,13.29,0.018,240.6
2021-07-03T03:52:03,42.805,6.029,-0.027,0.012,-0.016,105.0,106.0,103.0,13.4,1505.2,328.9,-0.8,1.8,2470.516,13.29,0.029,294.0
2021-07-03T03:55:03,42.805,6.029,-0.017,0.023,0.003,106.0,106.0,103.0,13.3,1505.2,325.2,-0.7,1.8,2470.474,13.29,0.028,323.5
2021-07-03T03:58:03,42.805,6.029,0.002,-0.009,-0.001,106.0,107.0,104.0,13.3,1505.2,329.0,-0.7,1.8,2470.522,13.29,0.009,167.5
2021-07-03T04:04:03,42.805,6.029,-0.007,0.006,0.002,107.0,106.0,104.0,13.3,1505.2,328.6,-0.8,1.8,2470.534,13.28,0.009,310.6
2021-07-03T04:07:03,42.805,6.029,-0.036,0.0,0.008,107.0,106.0,103.0,13.3,1505.2,327.6,-0.8,1.8,2470.484,13.29,0.036,270.0
2021-07-03T04:10:03,42.805,6.029,-0.022,-0.011,0.012,107.0,105.0,104.0,13.3,1505.2,327.6,-0.8,1.8,2470.542,13.29,0.024,243.4
2021-07-03T04:13:03,42.805,6.029,-0.025,-0.003,0.021,106.0,106.0,103.0,13.4,1505.2,325.3,-0.7,1.8,2470.534,13.29,0.025,263.2
2021-07-03T04:16:03,42.805,6.029,-0.021,0.005,0.016,107.0,106.0,104.0,13.4,1505.2,326.0,-0.8,1.8,2470.491,13.29,0.021,283.4
2021-07-03T04:19:03,42.805,6.029,-0.022,0.017,0.015,109.0,107.0,103.0,13.3,1505.2,328.1,-0.7,1.8,2470.485,13.29,0.027,307.7
2021-07-03T04:22:03,42.805,6.029,-0.038,0.023,-0.014,106.0,105.0,103.0,13.4,1505.2,328.9,-0.7,1.8,2470.488,13.29,0.044,301.2
2021-07-03T04:25:03,42.805,6.029,-0.024,0.015,0.0,105.0,107.0,102.0,13.4,1505.2,326.8,-0.7,1.8,2470.454,13.29,0.028,302.0
2021-07-03T04:28:03,42.805,6.029,-0.045,0.012,0.002,105.0,105.0,103.0,13.3,1505.2,328.8,-0.7,1.8,2470.505,13.29,0.046,284.9
2021-07-03T04:31:03,42.805,6.029,-0.03,0.006,-0.004,104.0,106.0,103.0,13.4,1505.2,325.0,-0.8,1.8,2470.518,13.29,0.03,281.3
2021-07-03T04:34:03,42.805,6.029,-0.031,-0.005,-0.005,106.0,105.0,103.0,13.4,1505.2,326.5,-0.7,1.8,2470.474,13.29,0.031,260.8
2021-07-03T04:37:03,42.805,6.029,-0.037,0.025,-0.01,106.0,105.0,103.0,13.4,1505.2,325.1,-0.7,1.8,2470.492,13.29,0.044,304.0
2021-07-03T04:40:03,42.805,6.029,-0.004,0.01,-0.011,106.0,105.0,103.0,13.4,1505.2,327.0,-0.8,1.8,2470.479,13.29,0.01,338.2
2021-07-03T04:43:03,42.805,6.029,-0.014,0.008,0.008,107.0,106.0,102.0,13.3,1505.2,330.2,-0.7,1.8,2470.492,13.29,0.016,299.7
2021-07-03T04:46:03,42.805,6.029,-0.032,0.002,-0.013,106.0,106.0,103.0,13.4,1505.2,325.2,-0.7,1.8,2470.478,13.29,0.032,273.6
2021-07-03T04:49:03,42.805,6.029,-0.043,-0.009,0.0,107.0,106.0,102.0,13.4,1505.2,328.3,-0.7,1.8,2470.493,13.29,0.043,258.2
2021-07-03T04:52:03,42.805,6.029,-0.024,-0.007,0.024,107.0,106.0,103.0,13.3,1505.2,327.6,-0.8,1.8,2470.433,13.29,0.025,253.7
2021-07-03T04:55:03,42.805,6.029,0.0,0.007,-0.022,106.0,106.0,103.0,13.4,1505.2,328.5,-0.7,1.8,2470.466,13.29,0.007,0.0
2021-07-03T04:58:03,42.805,6.029,-0.019,0.012,0.01,105.0,106.0,103.0,13.4,1505.2,328.2,-0.8,1.8,2470.509,13.29,0.022,302.3
2021-07-03T05:04:03,42.805,6.029,-0.024,-0.009,0.003,106.0,106.0,105.0,13.4,1505.2,326.4,-0.7,1.8,2470.487,13.28,0.025,249.4
2021-07-03T05:07:03,42.805,6.029,-0.024,0.018,0.022,106.0,106.0,105.0,13.4,1505.2,326.4,-0.7,1.8,2470.501,13.28,0.03,306.9
2021-07-03T05:10:03,42.805,6.029,-0.023,0.025,0.007,107.0,105.0,103.0,13.4,1505.2,330.3,-0.8,1.8,2470.546,13.29,0.033,317.4
2021-07-03T05:13:03,42.805,6.029,-0.04,0.003,0.006,106.0,106.0,103.0,13.4,1505.2,325.1,-0.7,1.8,2470.513,13.29,0.04,274.3
2021-07-03T05:16:03,42.805,6.029,-0.042,0.006,0.009,107.0,105.0,104.0,13.4,1505.2,326.8,-0.7,1.8,2470.459,13.29,0.042,278.1
2021-07-03T05:19:03,42.805,6.029,-0.021,0.012,0.052,107.0,105.0,103.0,13.4,1505.2,325.6,-0.8,1.8,2470.525,13.29,0.024,299.7
2021-07-03T05:22:03,42.805,6.029,-0.019,-0.012,0.007,106.0,107.0,102.0,13.4,1505.2,329.0,-0.7,1.8,2470.463,13.29,0.022,237.7
2021-07-03T05:25:03,42.805,6.029,-0.02,0.009,-0.002,106.0,106.0,104.0,13.4,1505.2,326.7,-0.8,1.8,2470.469,13.29,0.021,294.2
2021-07-03T05:28:03,42.805,6.029,-0.027,0.004,0.006,106.0,107.0,103.0,13.3,1505.2,326.6,-0.7,1.8,2470.491,13.29,0.027,278.4
2021-07-03T05:31:03,42.805,6.029,-0.034,0.002,0.022,105.0,105.0,102.0,13.4,1505.2,328.4,-0.7,1.8,2470.503,13.29,0.034,273.4
2021-07-03T05:34:03,42.805,6.029,-0.032,0.006,-0.016,107.0,105.0,102.0,13.3,1505.2,328.5,-0.8,1.8,2470.49,13.29,0.032,280.6
2021-07-03T05:37:03,42.805,6.029,-0.031,0.001,0.016,105.0,107.0,103.0,13.4,1505.2,329.9,-0.8,1.8,2470.451,13.29,0.031,271.8
2021-07-03T05:40:03,42.805,6.029,-0.032,0.024,0.008,107.0,105.0,103.0,13.4,1505.2,325.0,-0.7,1.8,2470.474,13.29,0.04,306.9
2021-07-03T05:43:03,42.805,6.029,-0.019,0.01,-0.014,106.0,107.0,103.0,13.4,1505.2,328.2,-0.8,1.8,2470.48,13.29,0.021,297.8
2021-07-03T05:46:03,42.805,6.029,-0.025,0.03,0.011,106.0,107.0,102.0,13.4,1505.2,325.6,-0.7,1.8,2470.491,13.29,0.039,320.2
2021-07-03T05:49:03,42.805,6.029,-0.023,0.002,0.001,107.0,106.0,104.0,13.3,1505.2,329.7,-0.7,1.8,2470.485,13.29,0.023,275.0
2021-07-03T05:52:03,42.805,6.029,-0.047,0.021,-0.007,106.0,106.0,103.0,13.3,1505.2,326.9,-0.7,1.8,2470.445,13.29,0.051,294.1
2021-07-03T05:55:03,42.805,6.029,-0.035,0.012,0.0,105.0,106.0,103.0,13.4,1505.2,325.5,-0.7,1.8,2470.503,13.29,0.037,288.9
2021-07-03T05:58:03,42.805,6.029,-0.027,0.027,0.027,104.0,106.0,104.0,13.4,1505.2,324.7,-0.8,1.8,2470.471,13.29,0.038,315.0
2021-07-03T06:04:03,42.805,6.029,-0.016,0.023,-0.006,106.0,108.0,102.0,13.3,1505.2,326.6,-0.8,1.8,2470.447,13.28,0.028,325.2
2021-07-03T06:07:03,42.805,6.029,-0.024,0.018,0.017,106.0,104.0,104.0,13.4,1505.2,327.0,-0.8,1.8,2470.478,13.28,0.03,306.9
2021-07-03T06:10:03,42.805,6.029,-0.022,0.004,-0.012,106.0,105.0,103.0,13.4,1505.2,324.7,-0.7,1.8,2470.468,13.28,0.022,280.3
2021-07-03T06:13:03,42.805,6.029,-0.032,0.029,-0.026,106.0,105.0,102.0,13.4,1505.2,328.7,-0.8,1.8,2470.453,13.29,0.043,312.2
2021-07-03T06:16:03,42.805,6.029,-0.021,0.005,0.023,106.0,105.0,106.0,13.4,1505.2,326.0,-0.8,1.8,2470.446,13.29,0.021,283.4
2021-07-03T06:19:03,42.805,6.029,-0.029,0.013,-0.003,104.0,106.0,104.0,13.4,1505.2,327.3,-0.7,1.8,2470.467,13.29,0.031,294.1
2021-07-03T06:22:03,42.805,6.029,-0.036,-0.003,-0.017,106.0,107.0,104.0,13.3,1505.2,325.1,-0.7,1.8,2470.477,13.29,0.036,265.2
2021-07-03T06:25:03,42.805,6.029,-0.055,0.008,-0.021,106.0,105.0,102.0,13.3,1505.2,329.4,-0.8,1.8,2470.437,13.29,0.055,278.3
2021-07-03T06:28:03,42.805,6.029,-0.023,0.018,0.011,106.0,107.0,103.0,13.4,1505.2,327.0,-0.8,1.8,2470.463,13.29,0.029,308.0
2021-07-03T06:31:03,42.805,6.029,-0.039,0.01,-0.005,106.0,105.0,103.0,13.3,1505.2,326.4,-0.7,1.9,2470.492,13.29,0.04,284.4
2021-07-03T06:34:03,42.805,6.029,-0.006,0.015,-0.011,106.0,106.0,103.0,13.4,1505.2,328.4,-0.8,1.8,2470.441,13.29,0.016,338.2
2021-07-03T06:37:03,42.805,6.029,-0.027,0.003,-0.013,107.0,106.0,103.0,13.3,1505.2,326.7,-0.8,1.8,2470.451,13.29,0.027,276.3
2021-07-03T06:40:03,42.805,6.029,0.005,0.009,0.02,107.0,105.0,104.0,13.4,1505.2,327.7,-0.8,1.8,2470.412,13.29,0.01,29.1
2021-07-03T06:43:03,42.805,6.029,-0.022,0.006,0.034,107.0,106.0,102.0,13.4,1505.2,328.0,-0.8,1.8,2470.457,13.29,0.022,285.3
2021-07-03T06:46:03,42.805,6.029,-0.035,0.017,0.017,105.0,105.0,104.0,13.4,1505.2,330.1,-0.7,1.8,2470.454,13.29,0.038,295.9
2021-07-03T06:49:03,42.805,6.029,-0.029,0.024,0.005,107.0,106.0,103.0,13.3,1505.2,324.6,-0.7,1.8,2470.458,13.29,0.037,309.6
2021-07-03T06:52:03,42.805,6.029,-0.011,0.013,0.012,106.0,105.0,104.0,13.4,1505.2,324.9,-0.7,1.8,2470.441,13.29,0.017,319.8
2021-07-03T06:55:03,42.805,6.029,-0.013,-0.001,-0.004,107.0,106.0,103.0,13.4,1505.2,327.8,-0.8,1.8,2470.456,13.29,0.013,265.6
2021-07-03T06:58:03,42.805,6.029,-0.008,0.008,-0.002,105.0,107.0,103.0,13.4,1505.2,329.7,-0.7,1.8,2470.442,13.29,0.011,315.0
2021-07-03T07:04:03,42.805,6.029,-0.017,0.012,-0.023,105.0,107.0,103.0,13.3,1505.2,329.2,-0.8,1.8,2470.444,13.28,0.02,305.2
2021-07-03T07:07:03,42.805,6.029,-0.028,0.003,0.014,106.0,106.0,103.0,13.4,1505.2,325.9,-0.8,1.8,2470.472,13.28,0.028,276.1
2021-07-03T07:10:03,42.805,6.029,-0.013,0.009,0.02,106.0,107.0,103.0,13.4,1505.2,326.3,-0.7,1.8,2470.493,13.29,0.015,304.7
2021-07-03T07:13:03,42.805,6.029,-0.014,0.006,0.015,106.0,106.0,104.0,13.4,1505.2,329.9,-0.7,1.9,2470.447,13.29,0.015,293.2
2021-07-03T07:16:03,42.805,6.029,-0.007,0.011,-0.022,106.0,105.0,103.0,13.4,1505.2,325.9,-0.8,1.8,2470.424,13.29,0.013,327.5
2021-07-03T07:19:03,42.805,6.029,-0.045,-0.004,-0.01,106.0,106.0,103.0,13.3,1505.2,325.6,-0.8,1.8,2470.463,13.29,0.045,264.9
2021-07-03T07:22:03,42.805,6.029,-0.033,0.022,0.011,107.0,104.0,103.0,13.4,1505.2,325.0,-0.8,1.8,2470.411,13.29,0.039,303.7
2021-07-03T07:25:03,42.805,6.029,-0.043,0.006,0.005,104.0,106.0,104.0,13.4,1505.2,328.3,-0.8,1.8,2470.448,13.29,0.043,277.9
2021-07-03T07:28:03,42.805,6.029,-0.022,0.02,-0.011,111.0,106.0,103.0,13.4,1505.2,326.0,-0.7,1.8,2470.417,13.29,0.029,312.3
2021-07-03T07:31:03,42.805,6.029,-0.016,0.008,-0.013,106.0,108.0,104.0,13.4,1505.2,327.8,-0.7,1.8,2470.436,13.29,0.017,296.6
2021-07-03T07:34:03,42.805,6.029,-0.02,0.009,0.023,106.0,106.0,103.0,13.4,1505.2,327.0,-0.8,1.8,2470.426,13.29,0.021,294.2
2021-07-03T07:37:03,42.805,6.029,-0.019,-0.002,0.004,105.0,106.0,104.0,13.3,1505.2,325.9,-0.7,1.8,2470.459,13.29,0.019,264.0
2021-07-03T07:40:03,42.805,6.029,-0.037,0.012,-0.002,105.0,105.0,103.0,13.3,1505.2,325.3,-0.8,1.8,2470.433,13.29,0.038,288.0
2021-07-03T07:43:03,42.805,6.029,-0.008,0.027,-0.005,107.0,104.0,102.0,13.4,1505.2,327.1,-0.8,1.8,2470.425,13.29,0.028,343.5
2021-07-03T07:46:03,42.805,6.029,-0.037,0.012,0.02,104.0,107.0,103.0,13.3,1505.2,329.9,-0.8,1.8,2470.432,13.29,0.038,288.0
2021-07-03T07:49:03,42.805,6.029,-0.036,0.002,-0.027,106.0,106.0,103.0,13.4,1505.2,328.6,-0.8,1.8,2470.412,13.29,0.036,273.2
2021-07-03T07:52:03,42.805,6.029,-0.036,0.015,0.023,107.0,106.0,105.0,13.3,1505.2,328.9,-0.7,1.8,2470.415,13.29,0.039,292.6
2021-07-03T07:55:03,42.805,6.029,-0.007,0.012,0.018,106.0,105.0,103.0,13.4,1505.2,328.5,-0.8,1.8,2470.402,13.29,0.013,329.7
2021-07-03T07:58:03,42.805,6.029,-0.017,0.008,-0.004,106.0,107.0,104.0,13.4,1505.2,327.9,-0.7,1.8,2470.419,13.29,0.018,295.2
2021-07-03T08:04:03,42.805,6.029,-0.017,0.014,0.001,105.0,105.0,104.0,13.4,1505.2,329.1,-0.8,1.9,2470.422,13.28,0.022,309.5
2021-07-03T08:07:03,42.805,6.029,-0.022,0.027,0.014,106.0,106.0,104.0,13.4,1505.2,329.5,-0.7,1.8,2470.443,13.29,0.034,320.8
2021-07-03T08:10:03,42.805,6.029,-0.033,0.011,0.021,106.0,105.0,104.0,13.3,1505.2,325.7,-0.8,1.8,2470.413,13.29,0.034,288.4
2021-07-03T08:13:03,42.805,6.029,-0.056,0.006,-0.031,106.0,107.0,103.0,13.4,1505.2,325.4,-0.7,1.8,2470.416,13.29,0.056,276.1
2021-07-03T08:16:03,42.805,6.029,-0.033,0.018,0.001,107.0,106.0,104.0,13.4,1505.2,328.5,-0.8,1.8,2470.42,13.29,0.037,298.6
2021-07-03T08:19:03,42.805,6.029,-0.023,0.018,-0.018,107.0,105.0,105.0,13.4,1505.2,327.1,-0.7,1.8,2470.362,13.29,0.029,308.0
2021-07-03T08:22:03,42.805,6.029,-0.033,0.008,-0.002,105.0,106.0,104.0,13.4,1505.2,325.2,-0.7,1.8,2470.384,13.29,0.033,283.6
2021-07-03T08:25:03,42.805,6.029,-0.039,0.005,-0.019,107.0,104.0,104.0,13.4,1505.2,330.5,-0.7,1.9,2470.363,13.29,0.039,277.3
2021-07-03T08:28:03,42.805,6.029,-0.006,0.002,0.003,107.0,107.0,103.0,13.4,1505.2,326.3,-0.8,1.8,2470.387,13.29,0.006,288.4
2021-07-03T08:31:03,42.805,6.029,-0.024,0.004,0.0,106.0,106.0,104.0,13.4,1505.2,326.0,-0.7,1.8,2470.397,13.29,0.024,279.5
2021-07-03T08:34:03,42.805,6.029,-0.042,-0.009,-0.027,107.0,106.0,102.0,13.3,1505.2,325.1,-0.8,1.8,2470.38,13.29,0.042,257.9
2021-07-03T08:37:03,42.805,6.029,-0.036,0.024,-0.006,105.0,105.0,104.0,13.4,1505.2,327.0,-0.7,1.8,2470.423,13.29,0.043,303.7
2021-07-03T08:40:03,42.805,6.029,-0.015,-0.014,-0.001,107.0,106.0,103.0,13.4,1505.2,325.8,-0.7,1.8,2470.381,13.29,0.02,227.0
2021-07-03T08:43:03,42.805,6.029,-0.011,0.022,-0.008,107.0,105.0,103.0,13.3,1505.2,328.6,-0.7,1.8,2470.365,13.29,0.024,333.4
2021-07-03T08:46:03,42.805,6.029,-0.032,0.025,-0.009,105.0,105.0,103.0,13.4,1505.2,329.9,-0.8,1.8,2470.368,13.29,0.04,308.0
2021-07-03T08:49:03,42.805,6.029,-0.021,0.009,-0.032,106.0,106.0,104.0,13.4,1505.2,325.5,-0.8,1.8,2470.357,13.29,0.022,293.2
2021-07-03T08:52:03,42.805,6.029,-0.032,0.016,-0.019,106.0,106.0,103.0,13.4,1505.2,326.8,-0.8,1.8,2470.417,13.29,0.035,296.6
2021-07-03T08:55:03,42.805,6.029,-0.018,0.029,0.0,105.0,104.0,103.0,13.4,1505.2,326.5,-0.8,1.8,2470.337,13.29,0.034,328.2
2021-07-03T08:58:03,42.805,6.029,-0.037,0.014,-0.011,104.0,105.0,102.0,13.4,1505.2,328.9,-0.7,1.8,2470.363,13.29,0.039,290.7
2021-07-03T09:04:03,42.805,6.029,-0.027,0.011,-0.023,105.0,105.0,103.0,13.4,1505.2,326.5,-0.8,1.8,2470.384,13.28,0.029,292.2
2021-07-03T09:07:03,42.805,6.029,-0.023,0.019,0.02,106.0,105.0,103.0,13.3,1505.2,328.0,-0.7,1.8,2470.404,13.28,0.029,309.6
2021-07-03T09:10:03,42.805,6.029,-0.028,-0.004,-0.007,105.0,105.0,103.0,13.4,1505.2,326.6,-0.7,1.8,2470.422,13.28,0.028,261.9
2021-07-03T09:13:03,42.805,6.029,-0.031,0.018,0.014,105.0,106.0,103.0,13.4,1505.2,330.4,-0.8,1.8,2470.43,13.29,0.035,300.1
2021-07-03T09:16:03,42.805,6.029,-0.032,0.025,-0.021,105.0,106.0,104.0,13.4,1505.2,326.4,-0.7,1.8,2470.387,13.29,0.04,308.0
2021-07-03T09:19:03,42.805,6.029,-0.021,0.027,-0.001,106.0,106.0,102.0,13.4,1505.2,326.4,-0.7,1.8,2470.332,13.29,0.034,322.1
2021-07-03T09:22:03,42.805,6.029,-0.019,0.003,-0.006,104.0,106.0,102.0,13.3,1505.2,325.3,-0.8,1.8,2470.42,13.29,0.019,279.0
2021-07-03T09:25:03,42.805,6.029,-0.014,0.01,0.006,104.0,106.0,104.0,13.4,1505.2,325.2,-0.8,1.8,2470.401,13.29,0.017,305.5
2021-07-03T09:28:03,42.805,6.029,-0.032,0.013,0.021,106.0,105.0,103.0,13.4,1505.2,326.5,-0.7,1.8,2470.366,13.29,0.034,292.1
2021-07-03T09:31:03,42.805,6.029,-0.02,0.024,0.008,106.0,105.0,103.0,13.3,1505.2,329.8,-0.8,1.8,2470.4,13.29,0.031,320.2
2021-07-03T09:34:03,42.805,6.029,-0.043,0.013,0.005,105.0,104.0,103.0,13.4,1505.2,326.8,-0.8,1.8,2470.398,13.29,0.044,286.8
2021-07-03T09:37:03,42.805,6.029,-0.037,0.028,0.017,104.0,106.0,103.0,13.3,1505.2,324.7,-0.8,1.8,2470.404,13.29,0.046,307.1
2021-07-03T09:40:03,42.805,6.029,-0.006,0.01,0.003,105.0,105.0,103.0,13.4,1505.2,328.9,-0.8,1.8,2470.381,13.29,0.011,329.0
2021-07-03T09:43:03,42.805,6.029,-0.025,0.012,-0.012,105.0,105.0,103.0,13.3,1505.2,326.5,-0.7,1.8,2470.391,13.29,0.027,295.6
2021-07-03T09:46:03,42.805,6.029,-0.026,0.023,-0.022,105.0,105.0,102.0,13.3,1505.2,327.2,-0.8,1.8,2470.361,13.29,0.034,311.5
2021-07-03T09:49:03,42.805,6.029,-0.049,0.013,-0.014,106.0,105.0,103.0,13.3,1505.2,325.3,-0.8,1.9,2470.392,13.29,0.05,284.9
2021-07-03T09:52:03,42.805,6.029,-0.018,0.024,-0.006,105.0,105.0,103.0,13.4,1505.2,325.8,-0.8,1.8,2470.371,13.29,0.03,323.1
2021-07-03T09:55:03,42.805,6.029,-0.014,0.016,0.0,104.0,105.0,102.0,13.3,1505.2,328.7,-0.8,1.8,2470.418,13.29,0.021,318.8